Location: *
(38.9800°N, 16.0500°E)
Time: 05:40:27
(UTC+00:00)

Cosmos 2227 Rocket - Pass Details

Date: 07 April 2020
Orbit: 837 x 847 km, 71.0° (Epoch: 05 June)

Event Time Altitude Azimuth Distance (km) Brightness Sun altitude
Exits shadow 01:17:23 43° 69° (ENE) 1,165 3.2 -33.9°
Drops below altitude 10° 01:21:37 10° 33° (NNE) 2,460 5.4 -33.3°
Sets 01:24:07 0° 29° (NNE) 3,400 6.3 -32.9°
